Ellsworth Air Force Base
KRCA : now visible

Airfield :











YOU CAN JOIN US ON...

 
LOGIN :

Register | Disclaimer

   EN    FR    IT 

 









Legend :    VFR   Marginal VFR   IFR   Intensive IFR   Very Intensive IFR
Visi :
Ceiling :
>= 8 km
>= 3000ft
5 to 8 km
1000 to 3000 ft
1500m to 5 km
500 to 1000 ft
800 to 1500m
200 to 500 ft
< 800m
< 200 ft
Symbols :   Thunderstorms  Fog  Heavy snow  Heavy precipitations  Wind > 20 kt






- Airport Elevation : 3276 ft


KRCA - Ellsworth Air Force Base

CURRENT METAR :
  • 221056Z AUTO 30003KT 10SM CLR 13/04 A2984 RMK AO2 SLP089 T01310040 CHINO RWY13 $

EXPIRED METARs :
  • 220956Z AUTO 19005KT 10SM CLR 11/05 A2986 RMK AO2 SLP098 T01130052 CHINO RWY13 $
  • 220856Z AUTO 28005KT 10SM CLR 11/04 A2986 RMK AO2 SLP098 T01140044 57019 CHINO RWY13 $

TAF TAF KRCA
Valid from the 22 at 11:00 until the 23 at 17:00 UTC


221100Z 2211/2317 VRB06KT 9999 FEW180 QNH2974INS TX33/2222Z TN12/2211Z
KZDV FIR / North America



MET'MAP, your aeronautical weather chart ! - Copyright ORBIFLY December 2007 - Disclaimer

ORBIFLY MET'MAP TEAM :

Programming & Development : Alexandra Zaïnal
Concept & original design : Baudouin d'Aumeries
Assistance for programming : Marc-Olivier Méhu
Technical & hardware support : Manuel Goepfert

Contact : metmap@orbifly.com




SOURCES & CREDITS :

   NOAA       Earth
Advisory